Brainerd, MN

6:32 PM CDT on May 22, 2017 (GMT -0500)
Brainerd-Crow Wing County Regional

Weather History for KBRD - January, 2014

Change the Weather History Date:

Monday, January 13, 2014

  Actual Average Record
Temperature  
Mean Temperature 23 °F -  
Max Temperature 28 °F 17 °F 49 °F (1987)
Min Temperature 18 °F -7 °F -38 °F (1977)
Degree Days  
Heating Degree Days 42    
Moisture  
Dew Point 14 °F    
Average Humidity 64    
Maximum Humidity 86    
Minimum Humidity 55    
Precipitation  
Precipitation 0.00 in - - ()
Sea Level Pressure  
Sea Level Pressure 29.57 in    
Wind  
Wind Speed 8 mph (WNW)    
Max Wind Speed 20 mph    
Max Gust Speed 26 mph    
Visibility 10 miles    
Events Snow    
Averages and records for this station are not official NWS values.
T = Trace of Precipitation, MM = Missing Value Source: NWS Daily Summary

Daily Weather History Graph

Daily Weather History Graph

Search for Another Location

Airport or City:

Trip Planner

Search our weather history database for the weather conditions in past years. The results will help you decide how hot, cold, wet, or windy it might be!

Date:

Astronomy

Jan. 13, 2014 Rise Set
Actual Time 7:56 AM CST 4:54 PM CST
Civil Twilight 7:22 AM CST 5:28 PM CST
Nautical Twilight 6:45 AM CST 6:05 PM CST
Astronomical Twilight 6:09 AM CST 6:41 PM CST
Moon 3:10 PM CST (1/13) 5:45 AM CST (1/13)
Length of Visible Light 10h 05m
Length of Day
8h 57m
Waxing Gibbous, 95% of the Moon is Illuminated
Jan 13
Waxing Gibbous
Jan 15
Full
Jan 23
Last Quarter
Jan 30
New
Feb 6
First Quarter

Hourly Weather History & Observations

Time (CST) Temp. Windchill Dew Point Humidity Pressure Visibility Wind Dir Wind Speed Gust Speed Precip Events Conditions
12:53 AM - - - N/A% 29.47 in 10.0 mi West 4.6 mph - N/A   Clear
1:15 AM - - - N/A% 29.47 in 10.0 mi WNW 6.9 mph - N/A   Mostly Cloudy
1:53 AM - - - N/A% 29.48 in 10.0 mi West 6.9 mph - N/A   Overcast
2:53 AM - - - N/A% 29.52 in 10.0 mi NW 9.2 mph 18.4 mph N/A   Overcast
3:53 AM - - - N/A% 29.54 in 10.0 mi NW 12.7 mph - N/A   Overcast
4:26 AM - - - N/A% 29.55 in 10.0 mi NW 17.3 mph 24.2 mph N/A   Overcast
4:53 AM - - - N/A% 29.56 in 10.0 mi NW 19.6 mph 26.5 mph N/A   Mostly Cloudy
5:50 AM 28.4 °F 20.4 °F 24.8 °F 86% 29.56 in 10.0 mi NW 8.1 mph - N/A   Mostly Cloudy
5:53 AM - - - N/A% 29.56 in 10.0 mi WNW 6.9 mph - N/A   Overcast
6:45 AM 28.4 °F 20.4 °F 24.8 °F 86% 29.57 in 10.0 mi WNW 8.1 mph - N/A   Overcast
6:53 AM - - - N/A% 29.56 in 10.0 mi West 8.1 mph - N/A   Overcast
7:13 AM - - - N/A% 29.57 in 10.0 mi West 6.9 mph - N/A   Overcast
7:23 AM - - - N/A% 29.57 in 10.0 mi West 6.9 mph - N/A   Overcast
7:51 AM - - - N/A% 29.58 in 10.0 mi West 15.0 mph 19.6 mph N/A   Overcast
7:53 AM - - - N/A% 29.58 in 10.0 mi WNW 13.8 mph 20.7 mph N/A   Overcast
8:53 AM 27.0 °F 18.7 °F 17.1 °F 66% 29.59 in 9.0 mi West 8.1 mph - N/A   Overcast
9:53 AM 28.0 °F 18.6 °F 18.0 °F 66% 29.59 in 9.0 mi West 10.4 mph - N/A   Overcast
10:53 AM 28.0 °F 19.3 °F 16.0 °F 61% 29.60 in 10.0 mi West 9.2 mph - N/A   Overcast
11:53 AM 28.0 °F 18.1 °F 16.0 °F 61% 29.60 in 10.0 mi West 11.5 mph - N/A   Overcast
12:53 PM 28.0 °F 20.0 °F 15.1 °F 58% 29.58 in 10.0 mi WNW 8.1 mph - N/A   Overcast
1:03 PM 28.4 °F 19.7 °F 14.0 °F 55% 29.58 in 10.0 mi WNW 9.2 mph - N/A   Overcast
1:53 PM 28.0 °F 18.6 °F 14.0 °F 56% 29.58 in 10.0 mi West 10.4 mph - N/A   Overcast
2:53 PM 28.0 °F 20.8 °F 14.0 °F 56% 29.59 in 10.0 mi West 6.9 mph - N/A   Overcast
3:34 PM 26.6 °F 18.2 °F 12.2 °F 55% 29.59 in 10.0 mi WNW 8.1 mph - N/A   Scattered Clouds
3:53 PM 27.0 °F 18.7 °F 12.9 °F 56% 29.58 in 10.0 mi WNW 8.1 mph - N/A   Clear
4:53 PM 24.1 °F 19.7 °F 12.0 °F 60% 29.59 in 10.0 mi WNW 3.5 mph - N/A   Clear
5:53 PM 19.0 °F - 10.0 °F 68% 29.59 in 10.0 mi Calm Calm - N/A   Mostly Cloudy
6:53 PM 18.0 °F - 10.0 °F 71% 29.59 in 10.0 mi Calm Calm - N/A   Overcast
7:53 PM 19.9 °F - 12.0 °F 71% 29.58 in 7.0 mi Calm Calm - N/A   Overcast
8:53 PM 21.0 °F - 12.0 °F 68% 29.62 in 9.0 mi Calm Calm - N/A   Overcast
9:53 PM 23.0 °F - 12.0 °F 63% 29.60 in 9.0 mi Calm Calm - N/A   Overcast
10:53 PM 23.0 °F - 12.0 °F 63% 29.59 in 10.0 mi Calm Calm - N/A   Overcast
11:07 PM 24.8 °F - 12.2 °F 59% 29.53 in 10.0 mi Calm Calm - N/A   Overcast
11:53 PM 24.1 °F - 12.9 °F 62% 29.58 in 3.0 mi Calm Calm - 0.00 in Snow Light Snow